Vertical_Velocity
-5 1 -3 -1 -2 -1 1 -1 -1 -2 0 2 -1 -2 1 -1 -2 -1 -1 -4 -3 -1 2 -1 -1 -2 -7
-4 -2 -3 2 1 -4 -3 -4 -3 -3 -1 -1 -0 -1 -2 -2 -3 -2 -2 -2 0 -2 -2 -5 -2 -2 -6
-3 -2 -0 -2 -6 -1 -0 -5 -3 -3 1 1 -1 -1 -1 1 -1 -4 -5 -4 -5 -3 -1 -4 -7 -4 -3
1 1 0 -2 -1 -3 -7 -4 -6 -4 4 2 -2 -4 -2 0 1 -1 -1 2 1 -1 -3 -5 -3 -2 -2
-0 1 1 -5 -3 -2 -2 -2 -5 -8 -4 -3 -5 -6 -5 3 -0 2 2 0 -1 -2 -0 2 2 2 1
-0 -3 -3 -1 -1 -0 1 -4 -9 -14 -14 -11 -5 -1 0 1 -1 -3 -3 -2 1 1 2 -1 -4 -4 -2
1 -1 -1 1 0 -5 -2 1 -1 -9 -6 -10 7 -6 1 -3 1 2 0 2 2 -0 -2 -2 -0 -1 2
-0 0 -0 -1 1 3 -4 -0 -2 -4 3 -22 7 -4 -4 -2 -5 -0 1 3 1 1 -3 -1 1 -2 -1
0 1 1 1 5 -1 -3 -2 -2 -9 8 -5 -4 -17 -1 -6 -8 -5 -4 -2 1 -1 1 1 -2 -2 -0
4 3 4 2 1 4 5 -0 3 -16 7 -2 -2 1 -15 -9 -6 -4 -1 3 1 1 2 3 1 1 -2
-4 -3 -1 1 -0 1 2 4 1 -8 16 11 -6 2 9 -11 -11 -5 -3 -6 -2 -3 4 5 2 5 -2
-1 -1 -4 -3 -2 2 1 4 6 -2 -1 10 -6 5 6 -4 -13 -8 -2 -5 3 -5 -2 1 2 2 4
-2 -1 -1 -1 0 -2 3 -2 0 3 6 7 5 2 5 -3 -4 -14 -1 -17 6 1 5 1 -1 1 -9
-2 -1 1 -1 -1 -1 -5 -6 -9 -5 5 4 4 4 -3 2 4 -11 6 -2 -3 -1 -1 -3 -0 0 -1
-1 -1 -1 -1 -1 1 1 -1 -0 -11 -11 6 6 3 6 7 -14 10 -8 -5 8 -4 2 -6 0 -0 -2
-1 -0 -4 -4 -6 -2 0 4 -3 -2 -5 1 -6 -12 -1 -2 -0 -17 4 -5 -2 1 4 1 -7 4 -4
-1 -1 -1 -3 -3 -1 -0 1 -2 -1 0 -6 -6 8 -1 -8 3 27 -10 -8 -0 -4 5 2 -4 -6 3
Height
1491 1492 1489 1486 1482 1479 1476 1472 1468 1465 1460 1456 1452 1452 1450 1447 1445 1444 1442 1440 1439 1437 1436 1435 1434 1434 1432
1484 1484 1482 1479 1473 1470 1468 1465 1460 1457 1453 1449 1446 1444 1441 1439 1437 1435 1432 1431 1429 1427 1425 1425 1424 1423 1423
1475 1475 1472 1470 1466 1463 1459 1456 1452 1449 1446 1442 1439 1437 1434 1431 1429 1426 1423 1420 1418 1416 1414 1413 1413 1412 1411
1471 1469 1466 1463 1460 1456 1449 1447 1443 1442 1439 1436 1433 1430 1427 1423 1420 1416 1412 1408 1405 1405 1403 1402 1401 1400 1400
1465 1463 1460 1456 1454 1450 1443 1439 1436 1434 1429 1427 1424 1420 1418 1414 1409 1406 1403 1399 1396 1395 1394 1393 1391 1390 1389
1460 1457 1454 1451 1447 1442 1438 1433 1428 1427 1421 1416 1416 1410 1407 1403 1400 1397 1394 1391 1388 1385 1384 1382 1380 1379 1378
1453 1452 1448 1446 1441 1437 1433 1429 1425 1422 1418 1404 1406 1400 1399 1395 1393 1389 1386 1383 1379 1377 1375 1373 1371 1369 1368
1448 1446 1443 1440 1437 1432 1428 1423 1419 1416 1413 1399 1397 1391 1388 1385 1384 1381 1378 1375 1372 1368 1366 1364 1361 1359 1357
1443 1441 1438 1435 1432 1426 1423 1418 1410 1407 1404 1397 1390 1382 1378 1373 1372 1371 1368 1365 1362 1359 1356 1352 1350 1348 1345
1437 1435 1433 1430 1426 1423 1418 1413 1408 1399 1397 1393 1387 1382 1367 1364 1363 1361 1359 1356 1351 1348 1345 1342 1339 1336 1332
1432 1430 1428 1425 1421 1418 1414 1409 1404 1398 1393 1388 1380 1377 1373 1359 1351 1351 1348 1343 1339 1335 1333 1330 1327 1324 1321
1427 1426 1423 1420 1417 1413 1409 1404 1399 1392 1388 1384 1375 1371 1365 1356 1347 1341 1339 1334 1329 1324 1322 1320 1318 1316 1314
1424 1421 1418 1416 1412 1407 1402 1397 1391 1387 1382 1377 1370 1365 1360 1351 1342 1334 1329 1324 1322 1317 1313 1311 1308 1306 1303
1419 1417 1414 1410 1406 1401 1395 1390 1383 1376 1374 1370 1364 1358 1351 1345 1338 1327 1323 1317 1312 1310 1305 1301 1298 1295 1292
1416 1413 1410 1405 1400 1396 1390 1383 1377 1370 1363 1361 1357 1351 1345 1339 1331 1323 1316 1309 1305 1300 1296 1289 1286 1284 1281
1413 1410 1406 1401 1395 1390 1384 1379 1372 1366 1359 1353 1347 1340 1335 1329 1325 1314 1307 1302 1297 1293 1289 1282 1275 1274 1272
1410 1407 1403 1397 1392 1386 1380 1374 1367 1361 1355 1349 1342 1337 1329 1320 1315 1313 1305 1296 1290 1284 1282 1277 1270 1264 1264